Regional Weather Roundup
Issued by NWS Newport/Morehead, NC

Home | Current Version | Previous Version | Text Only | Print | Product List | Glossary On
Versions: 1 2 3 4 5 6 7 8 9 10 11 12 13 14 15 16 17 18 19 20 21 22 23 24 25 26 27 28 29 30 31 32 33 34 35 36 37 38 39 40 41 42 43 44 45 46 47 48 49 50
000
ASUS42 KMHX 011725
RWRMHX
WEATHER ROUNDUP FOR EASTERN NORTH CAROLINA
NATIONAL WEATHER SERVICE NEWPORT/MOREHEAD CITY NC
100 PM EDT WED JUL 01 2015

NOTE: "FAIR" INDICATES FEW OR NO CLOUDS BELOW 12,000 FEET
WITH NO SIGNIFICANT WEATHER AND/OR OBSTRUCTIONS TO VISIBILITY

NCZ015>017-031-032-045>047-102-103-011800-
NORTH COAST

CITY           SKY/WX    TMP DP  RH WIND       PRES   REMARKS
EDENTON          N/A     83  70  63 SW8       29.95S
ELIZABETH CITY SUNNY     83  69  62 W8        29.94S
KITTY HAWK     SUNNY     88  68  52 W8        29.93S
MANTEO         SUNNY     85  67  55 W7        29.94F

$$

NCZ045>047-081-094-103-104-011800-
CENTRAL COAST

CITY           SKY/WX    TMP DP  RH WIND       PRES   REMARKS
FRISCO         SUNNY     81  72  74 SW16      29.97S
SWANQUARTER      N/A     84 N/A N/A SW5G10    29.91F

$$

NCZ095-097-098-100-101-011800-
SOUTHERN COAST

CITY           SKY/WX    TMP DP  RH WIND       PRES   REMARKS
BEAUFORT       MOSUNNY   83  75  77 SW16      29.98S
CEDAR ISLAND     N/A     84 N/A N/A NW3G9     30.00S
JACKSONVILLE   SUNNY     82  71  69 SW8       29.97F
PINEY ISLAND   SUNNY    N/A N/A N/A W9        29.96F
WILMINGTON     SUNNY     84  73  69 NW6       29.98F


$$

NCZ011>013-027>030-043-044-078>080-089-090>093-098-011800-
COASTAL PLAIN

CITY           SKY/WX    TMP DP  RH WIND       PRES   REMARKS
AHOSKIE        SUNNY     81  66  61 CALM      29.96S
CLINTON        CLOUDY    77  72  83 S6        30.00S
ELIZABETHTOWN  CLOUDY    77  71  80 SW5       30.00S
GOLDSBORO      SUNNY     82  71  68 SW5       29.95F
GREENVILLE     SUNNY     84  68  58 CALM      29.98F
HAVELOCK       MOSUNNY   87  71  58 SW12G17   29.97F
KENANSVILLE    CLOUDY    78  69  72 CALM      30.00S
KINSTON        SUNNY     82  70  65 S3        29.98S
NEW BERN       SUNNY     84  72  67 SW6       29.98S
RICHLANDS      PTSUNNY   82  70  65 SW9       29.99S
ROCKY MOUNT    SUNNY     86  67  52 SW7       29.96S
WASHINGTON     SUNNY     83  69  61 W3        29.96F
WHITEVILLE     CLOUDY    78  70  77 SW6       30.00S

$$

AMZ130-135-150-152-154-156-158-170-250-252-270-ANZ085-086-088-633-658-670-011800-
MARINE OBSERVATIONS

STATION/POSITION TIME  TEMP    WIND        PRES    WAVE   SWELL
                       AIR SEA DIR/SP/G            HT/PER HT/PER
                 (UTC) (F)     (DEG/KT/KT) (MB)    (FT/S) (FT/S)
CHESAPEAKE LIGHT 1700   79     220/  6/  6 1013.9
64 E VA BEACH    1650   77 77  240/ 16/ 17 1013.0    5/ 8   3/ 8
DUCK             1700   80 59  250/ 11/ 15 1012.9
2 E DUCK         1611      70                N/A     2/ 8
OREGON INLET     1700   81 82  200/ 14/ 17 1013.7
13E OREGON INLT  1700      74                N/A     3/ 8
HATTERAS CG      1700   81 81  220/ 10/ 17 1014.4
DIAMOND BUOY     1650   80 83  240/ 19/ 21 1014.5    5/ 6   3/ 8
CAPE LOOKOUT     1700   81     230/ 13/ 16 1014.9
BEAUFORT LAB     1700   81 80  220/  7/ 12 1014.4
30 SE NEW RVR IN 1608   80 81  260/ 16/ 19 1016.1
27 SE WRIGHTSVLE 1700      80  260/ 16/ 17   N/A
5 SE WRIGHTSVLE  1608   80 80  220/ 12/ 16 1015.7
225 S CAPE HAT   1650   81 80  240/ 16/ 19 1019.7    6/ 6   2/ 8
41 SE CHARLESTON 1650   79 82  240/ 19/ 23 1016.4    5/ 9   3/ 9

$$


USA.gov is the U.S. government's official web portal to all federal, state and local government web resources and services.